Voltar ao catálogo

STARLINK-35209

AtivoComunicaçõesVLEO
NORAD 65636·PAYLOAD·🇺🇸 United States

Lançado Sep 18, 2025 de Cape Canaveral Space Force Station

Loading…

Próximas Passagens (próximas 24 horas)

TLE

AtualizadoSource: CelesTrak SupGP

Época: Sep 14, 2026, 21:45 UTC

1 65636C 25210Q   26257.90673611 -.00140950  00000+0 -41620-2 0  2573
2 65636  53.1573 144.2166 0001433  79.4835  44.3726 15.34478705    14

Acompanhe STARLINK-35209 em tempo real com AllMySat

Download on the App Store